Have a Safe July 4th! 

Flight Track Log - Related Links

Times and Time Zones

All times are in EDT time to prevent confusion due to time zone crossing. See the UAL4849 flight status page for this flight to view local times or setup timezone preferences in your user account.

Time Position Orientation Groundspeed Altitude Reporting Facility
EDT Latitude Longitude Course Direction KTS MPH feet Rate Location/Type
Wed 11:50:19 PM 40.6833 -74.1667 North 108 124 200  Level New York TRACON
Wed 11:51:19 PM 40.6500 -74.1833 201° Southwest 150 173 1,500 1,167 Climbing New York TRACON
Wed 11:53:19 PM 40.7047 -74.2136 337° Northwest 169 194 3,700 1,193 Climbing Boston Center
Wed 11:54:20 PM 40.7519 -74.1850 25° Northeast 185 213 5,100 1,289 Climbing Boston Center
Wed 11:55:00 PM 41.0106 -74.1135 North  Level Estimated
Wed 11:55:20 PM 40.7914 -74.1383 42° Northeast 189 217 6,300  Level Boston Center
Wed 11:56:20 PM 40.8344 -74.0900 40° Northeast 195 224 7,600 1,289 Climbing Boston Center
Wed 11:57:21 PM 40.8778 -74.0406 41° Northeast 201 231 8,900 1,289 Climbing Boston Center
Wed 11:58:21 PM 40.9208 -73.9931 40° Northeast 201 231 10,200 1,050 Climbing Boston Center
Wed 11:59:21 PM 40.9639 -73.9444 40° Northeast 202 232 11,000 397 Climbing Boston Center
Thu 12:00:22 AM 41.0222 -73.8772 41° Northeast 238 274 11,000 248 Level Boston Center
Thu 12:01:22 AM 41.0769 -73.8133 41° Northeast 257 296 11,500 893 Climbing Boston Center
Thu 12:02:23 AM 41.1261 -73.7575 41° Northeast 237 273 12,800 744 Climbing Boston Center
Thu 12:03:23 AM 41.1856 -73.7225 24° Northeast 234 269 13,000 100 Climbing Boston Center
Thu 12:04:23 AM 41.2522 -73.7286 356° North 241 277 13,000  Level Boston Center
Thu 12:05:38 AM 41.3378 -73.7328 358° North 246 283 13,000  Level Boston Center
Thu 12:06:38 AM 41.4064 -73.7361 358° North 247 284 13,000  Level Boston Center
Thu 12:07:39 AM 41.4769 -73.7397 358° North 252 290 13,000  Level Boston Center
Thu 12:08:39 AM 41.5483 -73.7433 358° North 253 291 13,000 -450 Level Boston Center
Thu 12:09:39 AM 41.6219 -73.7472 358° North 263 303 12,100 -942 Descending Boston Center
Thu 12:10:40 AM 41.7006 -73.7508 358° North 277 319 11,100 -545 Descending Boston Center
Thu 12:11:40 AM 41.7753 -73.7558 357° North 273 314 11,000 -50 Descending Boston Center
Thu 12:12:40 AM 41.8517 -73.7592 358° North 257 296 11,000  Level Boston Center
Thu 12:13:41 AM 41.9228 -73.7622 358° North 257 296 11,000  Level Boston Center
Thu 12:14:33 AM 41.9808 -73.7647 358° North 254 292 11,000  Level Boston Center
Thu 12:15:39 AM 42.0572 -73.7700 357° North 254 292 11,000  Level Boston Center
Thu 12:16:40 AM 42.1319 -73.7719 359° North 252 290 11,000  Level Boston Center
Thu 12:17:41 AM 42.2022 -73.7753 358° North 252 290 11,000 -639 Level Boston Center
Thu 12:18:42 AM 42.2747 -73.7792 358° North 262 302 9,700 -1,488 Descending Boston Center
Thu 12:19:42 AM 42.3469 -73.7831 358° North 258 297 8,000 -1,785 Descending Boston Center
Thu 12:20:43 AM 42.4067 -73.7858 358° North 216 249 6,100 -1,884 Descending Boston Center
Thu 12:21:43 AM 42.4642 -73.7878 359° North 201 231 4,200 -1,537 Descending Boston Center
Thu 12:22:44 AM 42.5192 -73.7917 357° North 196 226 3,000 -590 Descending Boston Center
Thu 12:23:45 AM 42.5850 -73.7964 357° North 219 252 3,000 -446 Level Boston Center
Thu 12:24:45 AM 42.6422 -73.8011 357° North 210 242 2,100 -843 Descending Boston Center
Thu 12:25:46 AM 42.6844 -73.8039 357° North 137 158 1,300 -738 Descending Boston Center
Thu 12:26:47 AM 42.7189 -73.8039 360° North 113 130 600 -689 Descending Boston Center

Login

Don't have an account? Register now (free) for customized features, flight alerts, and more!